EW3205 Weather Reports


time (UTC)temp
C
wind
direction
speed
KPH
gust
KPH
rain 1hr
cm
rain 24hr
cm
rain mn
cm
humidity
%
barometer
mb
20260502163046 16 238 8.0 27.4 0.00 0.00 0.00 59 1011.4
20260502161544 17 181 11.3 24.1 0.00 0.00 0.00 56 1011.1
20260502151538 18 170 9.7 22.5 0.00 0.00 0.00 57 1011.8
20260502123020 17 155 9.7 19.3 0.00 0.00 0.00 62 1013.8
20260502121534 18 182 11.3 22.5 0.00 0.00 0.00 61 1013.9
20260502114516 17 152 14.5 24.1 0.00 0.00 0.00 61 1014.2
20260502113014 17 167 14.5 25.7 0.00 0.00 0.00 62 1014.4
20260502111513 17 204 16.1 27.4 0.00 0.00 0.00 61 1014.4
20260502110011 17 159 9.7 22.5 0.00 0.00 0.00 62 1014.5
20260502104509 17 200 14.5 24.1 0.00 0.00 0.00 63 1014.6
20260502103006 17 198 14.5 25.7 0.00 0.00 0.00 62 1014.8
20260502101506 16 193 8.0 27.4 0.00 0.00 0.00 64 1014.9
20260502100104 16 190 17.7 29.0 0.00 0.00 0.00 63 1015.0
20260502071527 13 190 8.0 22.5 0.00 0.00 0.00 73 1015.7
20260502070023 13 157 11.3 19.3 0.00 0.00 0.00 74 1015.8
20260502064516 13 153 9.7 17.7 0.00 0.00 0.00 73 1015.9
20260502063019 12 199 11.3 25.7 0.00 0.00 0.00 75 1016.1
20260502061507 12 164 12.9 24.1 0.00 0.00 0.00 76 1016.3
20260502060004 12 199 12.9 27.4 0.00 0.00 0.00 77 1016.4
20260502054501 11 188 11.3 19.3 0.00 0.00 0.00 78 1016.4
20260502053059 11 173 4.8 22.5 0.00 0.00 0.00 79 1016.5
20260502051556 11 185 14.5 22.5 0.00 0.00 0.00 79 1016.7
20260502050054 11 185 9.7 17.7 0.00 0.00 0.00 79 1016.8
20260502044552 10 179 9.7 19.3 0.00 0.00 0.00 80 1017.0
20260502043051 10 171 6.4 22.5 0.00 0.00 0.00 82 1017.2
20260502041548 10 181 6.4 14.5 0.00 0.00 0.00 83 1017.1
20260502040045 9 186 4.8 12.9 0.00 0.00 0.00 84 1017.4
20260502034543 9 192 3.2 9.7 0.00 0.00 0.00 85 1017.5
20260502033046 8 229 0.0 8.0 0.00 0.00 0.00 86 1017.7
20260502031539 9 135 1.6 9.7 0.00 0.00 0.00 85 1018.1
20260502030037 9 185 4.8 14.5 0.00 0.00 0.00 86 1018.3
20260502024536 8 185 3.2 9.7 0.00 0.00 0.00 87 1018.5
20260502023035 8 189 3.2 9.7 0.00 0.00 0.00 86 1018.7
20260502021533 8 225 4.8 9.7 0.00 0.00 0.00 86 1018.8
20260502020033 8 217 1.6 4.8 0.00 0.00 0.00 86 1019.0
20260502014531 8 207 3.2 6.4 0.00 0.00 0.00 87 1019.3
20260502013029 8 200 1.6 8.0 0.00 0.00 0.00 86 1019.4
20260502011527 8 198 1.6 4.8 0.00 0.00 0.00 87 1019.7
20260502010025 8 196 1.6 6.4 0.00 0.00 0.00 88 1019.8
20260502004539 8 213 3.2 6.4 0.00 0.00 0.00 88 1020.1
20260502003023 8 236 3.2 8.0 0.00 0.00 0.00 88 1020.4
20260502001520 8 191 3.2 9.7 0.00 0.00 0.00 87 1020.6
20260502000019 8 187 4.8 9.7 0.00 0.00 0.00 86 1020.7
20260501234526 8 200 3.2 6.4 0.00 0.00 0.00 86 1020.9
20260501233019 8 192 3.2 6.4 0.00 0.00 0.00 84 1020.8
20260501231516 8 197 3.2 6.4 0.00 0.00 0.00 82 1021.0
20260501230011 8 206 3.2 8.0 0.00 0.00 0.00 81 1021.3
20260501224510 9 197 3.2 9.7 0.00 0.00 0.00 80 1021.4
20260501223008 10 243 4.8 8.0 0.00 0.00 0.00 78 1021.5
20260501221506 10 217 1.6 6.4 0.00 0.00 0.00 78 1021.4
20260501220005 9 205 1.6 4.8 0.00 0.00 0.00 75 1021.6
20260501214502 10 171 1.6 9.7 0.00 0.00 0.00 72 1021.6
20260501213002 10 186 4.8 8.0 0.00 0.00 0.00 70 1021.7
20260501211601 10 214 3.2 6.4 0.00 0.00 0.00 70 1021.9
20260501210100 10 195 3.2 6.4 0.00 0.00 0.00 71 1021.9
20260501204558 10 189 1.6 6.4 0.00 0.00 0.00 71 1022.1
20260501203059 10 169 1.6 4.8 0.00 0.00 0.00 72 1022.4
20260501201557 11 152 3.2 8.0 0.00 0.00 0.00 70 1022.4
20260501200053 11 179 3.2 9.7 0.00 0.00 0.00 71 1022.6
20260501194556 11 124 1.6 6.4 0.00 0.00 0.00 69 1022.7
20260501193051 11 163 3.2 8.0 0.00 0.00 0.00 67 1022.8
20260501191550 11 177 1.6 9.7 0.00 0.00 0.00 65 1022.9
20260501190047 12 167 0.0 11.3 0.00 0.00 0.00 63 1023.2
20260501184549 12 162 8.0 12.9 0.00 0.00 0.00 60 1023.2
20260501183056 13 171 8.0 14.5 0.00 0.00 0.00 57 1023.3
20260501181552 13 194 9.7 16.1 0.00 0.00 0.00 55 1023.4
20260501180044 14 213 6.4 14.5 0.00 0.00 0.00 57 1023.4
20260501174604 15 208 4.8 11.3 0.00 0.00 0.00 53 1023.4
20260501173055 15 156 4.8 9.7 0.00 0.00 0.00 52 1023.5
20260501171542 16 210 4.8 8.0 0.00 0.00 0.00 51 1023.6
20260501170047 16 180 4.8 9.7 0.00 0.00 0.00 47 1023.8
20260501164548 16 170 3.2 9.7 0.00 0.00 0.00 48 1024.0